• en France
  • Liste des pays
  • À 7 jours
  • Température de l'eau
  • Carte satellitaire
  • Carte météo
  • Widgets météo
  • user-avatar
    Se connecter

    Météo par heure à Tatabánya

    Ce jour, 21 Juillet, Samedi

    Heure Température Précipitation Vent Pression Humidité
    00:00 +21°C° 0 mm 1 m/s 739 mmHg 82%
    01:00 +18°C° 0 mm 0 m/s 739 mmHg 83%
    02:00 +18°C° 0 mm 0 m/s 739 mmHg 84%
    03:00 +17°C° 0 mm 0 m/s 739 mmHg 85%
    04:00 +17°C° 0 mm 0 m/s 738 mmHg 87%
    05:00 +21°C° 0 mm 1 m/s 739 mmHg 81%
    06:00 +22°C° 0 mm 1 m/s 739 mmHg 75%
    07:00 +24°C° 0 mm 1 m/s 739 mmHg 70%
    08:00 +25°C° 0,1 mm 1 m/s 739 mmHg 64%
    09:00 +27°C° 0,1 mm 2 m/s 739 mmHg 58%
    10:00 +28°C° 0,1 mm 2 m/s 739 mmHg 52%
    11:00 +29°C° 0,1 mm 2 m/s 739 mmHg 51%
    12:00 +29°C° 0,1 mm 2 m/s 739 mmHg 50%
    13:00 +29°C° 0,1 mm 3 m/s 738 mmHg 49%
    14:00 +29°C° 0 mm 3 m/s 738 mmHg 50%
    15:00 +29°C° 0 mm 2 m/s 738 mmHg 51%
    16:00 +29°C° 0 mm 2 m/s 737 mmHg 51%
    17:00 +28°C° 0,4 mm 2 m/s 737 mmHg 57%
    18:00 +26°C° 0,4 mm 2 m/s 737 mmHg 63%
    19:00 +25°C° 0,4 mm 2 m/s 736 mmHg 68%
    20:00 +24°C° 1,2 mm 2 m/s 737 mmHg 72%
    21:00 +23°C° 1,2 mm 2 m/s 737 mmHg 75%
    22:00 +21°C° 1,2 mm 2 m/s 737 mmHg 79%
    23:00 +20°C° 0,4 mm 2 m/s 737 mmHg 81%

    Demain, 22 Juillet, Dimanche

    Heure Température Précipitation Vent Pression Humidité
    00:00 +20°C° 0,4 mm 2 m/s 737 mmHg 82%
    01:00 +20°C° 0,4 mm 2 m/s 737 mmHg 84%
    02:00 +19°C° 0,3 mm 2 m/s 737 mmHg 85%
    03:00 +19°C° 0,3 mm 2 m/s 736 mmHg 87%
    04:00 +20°C° 0,3 mm 1 m/s 736 mmHg 88%
    05:00 +21°C° 0,2 mm 1 m/s 736 mmHg 85%
    06:00 +22°C° 0,2 mm 1 m/s 737 mmHg 83%
    07:00 +23°C° 0,2 mm 1 m/s 737 mmHg 80%
    08:00 +24°C° 0,1 mm 1 m/s 737 mmHg 73%
    09:00 +26°C° 0,1 mm 1 m/s 737 mmHg 67%
    10:00 +28°C° 0,1 mm 2 m/s 737 mmHg 60%
    11:00 +28°C° 0,9 mm 2 m/s 736 mmHg 57%
    12:00 +29°C° 0,9 mm 2 m/s 736 mmHg 55%
    13:00 +30°C° 0,9 mm 2 m/s 736 mmHg 52%
    14:00 +30°C° 0,2 mm 2 m/s 736 mmHg 52%
    15:00 +30°C° 0,2 mm 2 m/s 736 mmHg 51%
    16:00 +30°C° 0,2 mm 2 m/s 736 mmHg 51%
    17:00 +28°C° 0 mm 2 m/s 735 mmHg 56%
    18:00 +27°C° 0 mm 2 m/s 735 mmHg 61%
    19:00 +26°C° 0 mm 2 m/s 735 mmHg 67%
    20:00 +25°C° 0,2 mm 2 m/s 735 mmHg 71%
    21:00 +23°C° 0,2 mm 2 m/s 735 mmHg 75%
    22:00 +21°C° 0,2 mm 2 m/s 735 mmHg 79%
    23:00 +22°C° 0,1 mm 1 m/s 736 mmHg 81%

    Après-demain, 23 Juillet, Lundi

    Heure Température Précipitation Vent Pression Humidité
    00:00 +21°C° 0,1 mm 1 m/s 736 mmHg 83%
    01:00 +21°C° 0,1 mm 1 m/s 736 mmHg 86%
    02:00 +20°C° 0,2 mm 1 m/s 736 mmHg 87%
    03:00 +20°C° 0,2 mm 1 m/s 735 mmHg 89%
    04:00 +19°C° 0,2 mm 2 m/s 735 mmHg 90%
    05:00 +20°C° 0,2 mm 2 m/s 735 mmHg 87%
    06:00 +20°C° 0,2 mm 2 m/s 735 mmHg 85%
    07:00 +21°C° 0,2 mm 2 m/s 736 mmHg 82%
    08:00 +22°C° 0,6 mm 3 m/s 736 mmHg 78%
    09:00 +24°C° 0,6 mm 3 m/s 736 mmHg 74%
    10:00 +25°C° 0,6 mm 3 m/s 736 mmHg 70%
    11:00 +26°C° 1,3 mm 2 m/s 736 mmHg 68%
    12:00 +26°C° 1,3 mm 2 m/s 736 mmHg 66%
    13:00 +27°C° 1,3 mm 2 m/s 736 mmHg 64%
    14:00 +27°C° 0,6 mm 2 m/s 736 mmHg 63%
    15:00 +28°C° 0,6 mm 2 m/s 736 mmHg 62%
    16:00 +28°C° 0,6 mm 3 m/s 736 mmHg 61%
    17:00 +27°C° 0,3 mm 3 m/s 736 mmHg 64%
    18:00 +26°C° 0,3 mm 2 m/s 736 mmHg 68%
    19:00 +25°C° 0,3 mm 2 m/s 736 mmHg 72%
    20:00 +24°C° 0,1 mm 3 m/s 736 mmHg 73%
    21:00 +22°C° 0,1 mm 3 m/s 737 mmHg 74%
    22:00 +21°C° 0,1 mm 3 m/s 737 mmHg 75%
    23:00 +21°C° 0 mm 3 m/s 737 mmHg 76%

    24 Juillet, Mardi

    Heure Température Précipitation Vent Pression Humidité
    00:00 +20°C° 0 mm 3 m/s 737 mmHg 77%
    01:00 +20°C° 0 mm 3 m/s 737 mmHg 78%
    02:00 +19°C° 0 mm 2 m/s 737 mmHg 80%
    03:00 +19°C° 0 mm 2 m/s 737 mmHg 82%
    04:00 +18°C° 0 mm 2 m/s 737 mmHg 84%
    05:00 +19°C° 0 mm 3 m/s 738 mmHg 80%
    06:00 +20°C° 0 mm 3 m/s 738 mmHg 76%
    07:00 +22°C° 0 mm 3 m/s 738 mmHg 72%
    08:00 +24°C° 0 mm 3 m/s 738 mmHg 64%
    09:00 +26°C° 0 mm 3 m/s 738 mmHg 57%
    10:00 +28°C° 0 mm 3 m/s 738 mmHg 50%
    11:00 +29°C° 0 mm 3 m/s 738 mmHg 46%
    12:00 +30°C° 0 mm 3 m/s 738 mmHg 43%
    13:00 +31°C° 0 mm 3 m/s 738 mmHg 40%
    14:00 +31°C° 0 mm 3 m/s 737 mmHg 40%
    15:00 +30°C° 0 mm 4 m/s 737 mmHg 41%
    16:00 +30°C° 0 mm 4 m/s 737 mmHg 42%
    17:00 +29°C° 0 mm 3 m/s 737 mmHg 49%
    18:00 +27°C° 0 mm 3 m/s 737 mmHg 55%
    19:00 +26°C° 0 mm 3 m/s 737 mmHg 62%
    20:00 +25°C° 0 mm 2 m/s 737 mmHg 66%
    21:00 +24°C° 0 mm 2 m/s 737 mmHg 69%
    22:00 +21°C° 0 mm 2 m/s 738 mmHg 72%
    23:00 +21°C° 0 mm 2 m/s 737 mmHg 75%

    25 Juillet, Mercredi

    Heure Température Précipitation Vent Pression Humidité
    00:00 +20°C° 0 mm 2 m/s 737 mmHg 77%
    01:00 +20°C° 0 mm 2 m/s 737 mmHg 79%
    02:00 +19°C° 0 mm 2 m/s 737 mmHg 81%
    03:00 +19°C° 0 mm 2 m/s 737 mmHg 84%
    04:00 +18°C° 0 mm 2 m/s 737 mmHg 86%
    05:00 +19°C° 0 mm 2 m/s 738 mmHg 81%
    06:00 +21°C° 0 mm 2 m/s 738 mmHg 76%
    07:00 +23°C° 0 mm 2 m/s 738 mmHg 72%
    08:00 +24°C° 0 mm 2 m/s 738 mmHg 66%
    09:00 +26°C° 0 mm 2 m/s 738 mmHg 61%
    10:00 +28°C° 0 mm 2 m/s 738 mmHg 55%
    11:00 +28°C° 0,2 mm 2 m/s 738 mmHg 53%
    12:00 +29°C° 0,2 mm 1 m/s 738 mmHg 50%
    13:00 +30°C° 0,2 mm 1 m/s 738 mmHg 47%
    14:00 +30°C° 0,2 mm 1 m/s 738 mmHg 47%
    15:00 +30°C° 0,2 mm 2 m/s 737 mmHg 47%
    16:00 +30°C° 0,2 mm 2 m/s 737 mmHg 47%
    17:00 +29°C° 0 mm 1 m/s 737 mmHg 51%
    18:00 +27°C° 0 mm 1 m/s 737 mmHg 55%
    19:00 +26°C° 0 mm 1 m/s 737 mmHg 59%
    20:00 +25°C° 0 mm 1 m/s 738 mmHg 62%
    21:00 +24°C° 0 mm 1 m/s 738 mmHg 65%
    22:00 +23°C° 0 mm 1 m/s 738 mmHg 68%
    23:00 +22°C° 0 mm 1 m/s 738 mmHg 70%

    26 Juillet, Jeudi

    Heure Température Précipitation Vent Pression Humidité
    00:00 +22°C° 0 mm 1 m/s 738 mmHg 72%
    01:00 +21°C° 0 mm 1 m/s 738 mmHg 75%
    02:00 +21°C° 0 mm 1 m/s 738 mmHg 77%
    03:00 +20°C° 0 mm 1 m/s 738 mmHg 79%
    04:00 +20°C° 0 mm 1 m/s 738 mmHg 81%
    05:00 +21°C° 0 mm 1 m/s 739 mmHg 77%
    06:00 +22°C° 0 mm 1 m/s 739 mmHg 73%
    07:00 +24°C° 0 mm 2 m/s 739 mmHg 68%
    08:00 +25°C° 0 mm 2 m/s 739 mmHg 62%
    09:00 +27°C° 0 mm 2 m/s 739 mmHg 56%
    10:00 +29°C° 0 mm 2 m/s 739 mmHg 51%
    11:00 +29°C° 0 mm 2 m/s 739 mmHg 47%
    12:00 +30°C° 0 mm 2 m/s 739 mmHg 44%
    13:00 +31°C° 0 mm 2 m/s 739 mmHg 40%
    14:00 +31°C° 0 mm 2 m/s 739 mmHg 40%
    15:00 +31°C° 0 mm 2 m/s 739 mmHg 40%
    16:00 +31°C° 0 mm 3 m/s 738 mmHg 39%
    17:00 +30°C° 0 mm 2 m/s 739 mmHg 45%
    18:00 +28°C° 0 mm 2 m/s 739 mmHg 52%
    19:00 +27°C° 0 mm 2 m/s 739 mmHg 58%
    20:00 +26°C° 0 mm 2 m/s 739 mmHg 62%
    21:00 +25°C° 0 mm 2 m/s 739 mmHg 66%
    22:00 +24°C° 0 mm 2 m/s 739 mmHg 70%
    23:00 +23°C° 0 mm 2 m/s 739 mmHg 73%
    Voir plus